cliquez pour ajouter le site Runraid à vos favoris  English version (google)  Retour à l'accueil Ecrire à l'auteur du site Runraid : Michel Jourdan


 Visitez La Boutique 


 Diagonale des Fous 

Ecrire au créateur du site : Michel Jourdan
Contact


2007-05-27 - Grand Raid 73

Pour consulter le palmarès d'un coureur, un clic sur son nom !

Vous avez des remarques, corrections, ... sur ces résultats , un clic sur --> pour me transmettre toute information concernant les classements


Grand Raid 73 - 2007 : classement des 143 finishers
Place Nom Temps Cat. Club Sexe Clt/cat.
Place Nom Temps Cat. Club Sexe Clt/cat.
1 POMMERET LUDOVIC 07:49:56 SEM ASCM ENDURANCE M 180
2 SHERPA Dachhiri Dawa 08:33:02 SH TEAM QUECHUA M 43
3 RACINET FLORIAN 08:51:41 SH PLANETE TONIQUE M 109
4 TISSOT LAURENT 08:54:21 V1H - M 1- V1H 69
5 ALLOUARD DAVID 08:54:21 SH - M 72
6 BURETTE PIERRE 08:57:43 V1H - M 118
7 VETTIER CHRISTOPHE 08:59:43 SH - M 92
8 DURIX Jean Michel 09:03:54 SH PLANETE TONIQUE M 111
9 GANNAC PHILIPPE 09:03:53 SH PEAK PERFORMANCE M 143
10 CHACORNAC OLIVIER 09:05:44 SH ASM ENDURANCE M 145
11 CHIFFLOT MICHEL 09:31:55 V1H - M 9
12 CATALA BENOIT 09:32:12 SH - M 1
13 DERIVAZ ERIC 09:34:47 V1H LES CHAMOIS DU NIVOL M 130
14 FRANCOU JEAN BAPTISTE 09:36:36 V2H - M 1- V2H 174
15 MASSON SCHAEFFER GWEN 09:43:03 SH - M 124
16 DEBIZE JEROME 09:43:10 SH AAA DU LYONNAIS M 165
17 HAYETINE Alexandre 09:44:15 SH - M 176
18 DENIS BILLET CHRISTINE 09:56:38 SF TEAM ACTIVA SPORT F 1ere F 126
19 GRANON RADET STEPHAN 09:57:23 V1H TEAM GR M 23
20 NALIN GUILLAUME 09:58:41 SH - M 31
21 BLIN SEBASTIEN 10:00:15 SH ELAN VOGLANAIS M 100
22 BOEBION DANIEL 10:00:52 V3H ELAN VOGLANAIS M 1- V3H 134
23 VIAL PATRICK 10:04:01 SH - M 122
24 BRESSOT PERRIN HUBERT 10:05:08 V2H CAM VILLEURBANNE M 6
25 JOURDHEUIL XAVIER 10:05:08 V1H ST JEAN DE MAURIENNE M 177
26 DUBOSCLARD Jean Michel 10:11:47 V1H - M 167
27 CAHEZ THIBAUD 10:11:50 V1H LES CHAMOIS DU NIVOL M 131
28 RYASCOFF PASCAL 10:11:50 V1H TEFAL M 41
29 GIRARD BRUNO 10:16:48 SH JEFF CLUB M 22
30 DESPLANCHES LUC 10:20:29 SH - M 15
31 DESPLANCHES NICOLAS 10:22:32 SH - M 162
32 PFEND STEPHANE 10:28:20 SH UFO M 147
33 MASSE JOEL 10:28:20 SH - M 74
34 BLANC MARIE PAULE 10:34:30 SF LES CHAMOIS DU NIVOL F 2eme F - 1 V2F 133
35 VERCEUEIL LAURENT 10:25:21 V1H - M 49
36 DELACHENAL PHILIPPE 10:40:27 V2H COURIR ET DECOUVRIR M 83
37 KAUTZMANN LUC 10:41:55 V1H LES VOGIRUNNERS M 93
38 BEREZIAT LAURENT 10:24:27 SH - M 169
39 FOURNY MATTHIEU 10:49:25 SH CSM RILLIEUX M 155
40 RAMSTEIN MAXIME 10:51:42 ESH - M 1 ESH 159
41 BRUYAS DIDIER 10:51:54 V2H - M 172
42 CHOSSAT CYRIL 10:52:05 V1H CAF ISERE M 179
43 RAVIER DENIS 10:52:08 V1H - M 175
44 GIBERT FRANCOIS 10:52:50 SH LM NATURE M 89
45 FRESLON BETTE Caroline 10:58:24 SF PLANETE TONIQUE F 3eme F 108
46 BLANC GERARD 11:08:51 V2H SPIRIDON AURILLAC M 146
47 WARENGHEM ROGER 11:09:28 V2H - M 50
48 GINETTI BERNARD 11:12:40 V1H - M 164
49 FERT ETIENNE 11:14:12 V1H - M 18
50 CHALLIER JEROME 11:14:59 SH TRI SALEVE M 173
51 ANCRENAZ PATRICK 11:25:17 V1H - M 59
52 GRANON RENAUD 11:25:45 SH TEAM GR M 60
53 CHAREYRON ERIC 11:25:45 V1H - M 55
54 ALFONSO CEMBRANOS DANIEL 11:27:40 SH APACHES M 163
55 MARTIN DANIEL 11:28:07 SH - M 120
56 CHALANDON PIERRE 11:28:37 SH - M 8
57 TRIBONDEAU OLIVIER 11:36:06 V1H UFO M 47
58 DUFUS FABRICE 11:36:06 SH - M 16
59 BATIFOULIER MURIEL 11:37:13 V1F COOL RUNNING F 4eme Feminine - 1 V1F 168
60 DELZECHI YVES 11:37:14 V2H SAPEURS POMPIERS SAN M 154
61 BLANC PATRICE 11:38:18 V1H JOGGING JONAGE M 3
62 DUCLOS DANIEL 11:41:38 V2H AVOC M 64
63 PASERO MICHEL 11:41:38 V1H ANNECY OFF COURSE M 35
64 HENN VINCENT 11:46:32 SH CSMR M 151
65 AUROY PASCAL 11:51:00 V1H - M 7
66 ROUSSILLON FABRICE 11:58:57 V1H LONS ATHLETIQUE M 153
67 PASERO MARIE CHRISTINE 12:08:26 V1F ANNECY OFF COURSE F 5eme Feminine 36
68 VEYRAT PIERRE 12:08:26 SH - M 81
69 ROCHE JEAN FRANCOIS 12:10:53 V2H SPORT NATURE M 140
70 ESBRAT PHILIPPE 12:10:53 V1H SPORT NATURE M 141
71 DEGRANGE JEAN FRANCOIS 12:10:58 V1H - M 12
72 CAVIGLIA JEROME 12:17:24 SH TEAM NATURA M 150
73 CORGIER ANDRE 12:18:01 V1H - M 11
74 LACAN DANIEL 12:19:21 V2H SPORT NATURE M 142
75 LE VOURCH RICHARD 12:20:42 SH EAC M 29
76 PORTE JEAN CLAUDE 12:24:17 V1H ASPTT BLOIS M 105
77 LEGRON OLIVIER 12:25:54 V1H - M 136
78 LEGRON ANNE 12:25:54 SF - F 135
79 TARDIF JEAN 12:29:22 V2H - M 44
80 PASCO YANN 12:29:22 SH - M 67
81 PICANON JEAN MARC 12:31:01 V2H - M 71
82 HUBERT FLORENT 12:34:09 SH - M 88
83 RULLIER VINCENT 12:34:31 V2H AEA M 66
84 HUMBERT SERGE 12:35:47 V2H DSA ST VIT M 95
85 BERTHUIT ROLLAND 12:39:50 V1H - M 97
86 GIGUET JEAN CLAUDE 12:43:48 V1H - M 62
87 LE BARON ANTOINE 12:44:23 V1H - M 84
88 THILLAYE DU BOULLAY JEROME 12:44:23 V1H - M 86
89 GUILLERMINET GILLES 12:45:23 V1H CHALON ENDURANCE M 113
90 SUTTER ERIC 12:45:23 SH - M 94
91 PIQUET ERIC 12:52:40 V1H - M 116
92 MAILLAND ROGER 12:53:56 V2H - M 30
93 GROUCY LUDOVIC 12:57:21 SH - M 24
94 PENOUCOS GUSTAVO 13:08:01 V2H - M 61
95 ALLAIRE JEAN PHILIPPE 13:10:56 V1H - M 144
96 ROTT FLORENT 13:15:13 V2H - M 106
97 RICHARD FRANCOIS 13:16:48 V1H - M 139
98 BAUDRY SEBASTIEN 13:18:21 SH KIKOUROU M 132
99 DUFOREST FRANCOIS 13:18:21 V1H - M 119
100 DAVIN MARC 13:26:39 V1H - M 123
101 PELLOQUIN OLIVIER 13:29:24 SH - M 171
102 PELLOQUIN MARINE 13:29:24 SF - F 170
103 SOURIAU REGINE 13:37:16 V2F ASPTT BLOIS F 1 V2F 101
104 BOUSQUET DENIS 13:38:08 V2H EA BOURG M 54
105 VIGNA FLORENCE 13:39:06 V1F FFCO RAID F 148
106 GALLET BENOIT 13:39:17 SH - M 19
107 VIVIER FREDERIC 13:39:29 SH CAF DSA M 156
108 GAUSSUIN CHRISTINE 13:42:40 V1F - F 21
109 PAPAZIAN ANTRANIK 13:42:40 V2H SPORTIF IBM MARSEILL M 34
110 PONCIN PILIPPE 13:44:38 V1H MARATOURISTE M 37
111 SCHOLZ EDDY 13:49:57 V1H DE DIETRICH THERMIQU M 80
112 GASTINEAU GERARD 13:56:34 V1H COURIR EN LAYON M 20
113 DECOUT MICHEL 13:57:39 V2H - M 77
114 LE MEUR CHRISTIAN 13:58:05 V2H MARATOURISTE M 28
115 FAUVEL HENRI 14:04:16 V1H MARATOURISTE M 17
116 DESDEVISES MANUEL 14:05:27 SH - M 14
117 BOURGEOIS FABIEN 14:05:45 V1H ATHLETIC BELAIR M 4
118 VOCCIA CHRISTIAN 14:07:24 V2H STAF M 63
119 MANIAGO MARCEL 14:26:26 V3H ASPTT BLOIS M 103
120 FREDEZ JEAN FRANCOIS 14:26:26 V1H - M 57
121 CHEVALIER PATRICK 14:29:21 V2H CCR92 M 115
122 BINET PIERRE 14:32:50 SH - M 52
123 PAPAZIAN FRANCOISE 14:43:46 V2F SPORTIF IBM MARSEILL F 33
124 COMBE DENIS 14:44:45 V1H LES MARATOURISTE M 10
125 BERTHE Jean Pierre 14:54:51 V1H - M 85
126 HUMBERT GUILLAUME 15:11:41 SH - M 26
127 GAUTHIER PATRICIA 15:13:33 V1F CMBM CHAMONIX F 166
128 BADIN JEAN CLAUDE 15:13:33 V2H JOGGING CLUB VERANNE M 160
129 ZELLNER PASCAL 15:16:01 V1H COURIR ET DECOUVRIR M 75
130 TORNEY CONSTANT 15:20:36 V2H - M 90
131 CISINSKI CYRIL 15:21:45 V1H - M 68
132 BURLOT LUDOVIC 15:21:45 SH AJT M 82
133 AYMOZ NICOLE 15:31:14 V2F - F 58
134 SOURIAU CLAUDE 15:33:12 V3H ASPTT BLOIS M 102
135 TATE ERWAN 15:40:36 SH - M 46
136 THIBAULT ALAIN 15:54:58 V2H - M 112
137 AUROY MARC 15:54:58 V2H - M 51
138 BLIN MARCEL 16:05:34 V2H ELAN VOGLANAIS M 99
139 LU YUN JACQUELINE 16:05:34 SF KIKOUROU F 157
140 TARDIF BEATRICE 16:17:41 V2F - F 45
141 RABOT LAURENCE 16:22:25 SF RAID UP F 117
142 HAZARD AMAURY 16:22:25 SH - M 25
143 BINET FREDERIC 16:22:26 V1H - M 65


ReferencementCe site est listé dans la catégorie Sport : Sports extrêmes Dictionnaire
| Accueil | La Réunion  Vue du ciel | Météo | Cyclones | Volcan | Cirques de Mafate , Cilaos , Salazie | Photos Randonnées | Randonnées Réunion: Randos Espiègle , Courses montagne | Diagonale des Fous |  Marathon des Sables | Voyages Les stats du site | Fonds écran | Plan du site | Blog de runraid | Galerie photos Sport Réunion |